星链-31401 (STARLINK-31401 )

导读

STARLINK-31401是由美国发射的星链卫星,于2024年4月5日发射入轨,隶属于SpaceX公司的星链项目。星链项目旨在构建全球卫星互联网星座,为全球提供高速低延迟的宽带网络服务,该卫星的发射进一步扩充了星链星座的在轨卫星规模,助力其全球覆盖网络的搭建。

基本信息
目录编号:
59417
目录名称:
STARLINK-31401
国际标识:
2024-064V
轨道中心:
EARTH
卫星名称:
星链-31401
卫星全名:
星链-31401 (STARLINK-31401 )
卫星状态:
在轨 (已飞行804 天)
发射日期:
2024-04-05 UTC
国别 :
美国 (US)
星等 :
--
轨道信息
数据来源 国际轨道数据 AOE轨道数据
星历时间 2026-06-17T03:15:34+0800
1天前
查看轨道信息
2026-06-17T07:00:00+0800
1天前
查看轨道信息
半长轴 6861.2km 6861.18km
偏心率 0.0001155 0.0001282
轨道倾角 42.999° 42.999°
近地点辐角 271.965° 283.045°
升交点赤经 209.521° 208.648°
平近点角 88.107° 215.118°
近地点 482.27km 482.163km
远地点 483.856km 483.923km
周期 94.267分钟 94.267分钟
每日圈数 15.275756 15.275821
详细信息
固有亮度:
5
最大亮度:
0.3
卫星平台:
Starlink v2.0 mini
覆盖范围:
全球
运营商:
太空探索技术公司
运营商所在国:
美国
制造商(研发单位):
太空探索技术公司
制造商所在国:
美国
使用方式:
暂无
卫星简介
星链(Starlink)计划是由太空探索技术公司(SpaceX)提出的一个巨型低轨卫星互联网星座项目,计划在2019年至2024年间在太空搭建由约1.2万颗卫星组成的“星链”网络,其中1584颗将部署在地球上空550千米处的近地轨道,并从2020年开始工作。该卫星仍在工作。
2D轨道图
3D轨道图
轨道高度分析图
轨道倾角分析图
轨道综合分析图
查看轨道综合分析图